Regional Weather Roundup
Issued by NWS

Home | Current Version | Previous Version | Text Only | Print | Product List | Glossary Off
Versions: 1 2 3 4 5 6 7 8 9 10 11 12 13 14 15 16 17 18 19 20 21 22 23 24 25 26 27 28 29 30 31 32 33 34 35 36 37 38 39 40 41 42 43 44 45 46 47 48 49 50

000
ASUS45 KBOU 222307
RWRCO

WEATHER ROUNDUP FOR COLORADO
NATIONAL WEATHER SERVICE DENVER/BOULDER CO
400 PM MST SAT NOV 22 2014

NOTE: "FAIR" INDICATES FEW OR NO CLOUDS BELOW 12000 FEET WITH NO
SIGNIFICANT WEATHER AND/OR OBSTRUCTIONS TO VISIBILITY.

COZ001>005-013-030-031-230000-
...NORTHWEST COLORADO...

CITY           SKY/WX    TMP DP  RH WIND       PRES   REMARKS
CRAIG          CLOUDY    39  29  67 SW14      29.80F
HAYDEN         CLOUDY    34  30  86 NE6       29.80F WCI  29
MEEKER         CLOUDY    37  31  78 NE5       29.83F
MOUNT WERNER   NOT AVBL
STEAMBOAT SPGS CLOUDY    32  32  99 N3        29.82F
WALDEN         CLOUDY    32  28  86 S14G20    29.79S WCI  22
$$

COZ006>008-011-230000-
...WEST CENTRAL VALLEYS...

CITY           SKY/WX    TMP DP  RH WIND       PRES   REMARKS
GRAND JUNCTION CLOUDY    42  21  43 SE3       29.85F
MONTROSE       CLOUDY    51  19  28 W9        29.87S
EAGLE          LGT SNOW  37  30  75 W13       29.89R FOG
RIFLE          CLOUDY    41  32  70 NE7       29.86F
DELTA          CLOUDY    50  22  33 SW9       29.86S
NUCLA          CLOUDY    48  19  32 SW13G21   29.94R
$$

COZ017>023-064>068-230000-
...SOUTHWEST COLORADO...

CITY           SKY/WX    TMP DP  RH WIND       PRES   REMARKS
DURANGO        PTCLDY    46  18  32 W14       29.95S
CORTEZ         CLEAR     49  20  31 SE6       29.94F
PAGOSA SPRINGS PTCLDY    44  16  32 SW9       29.95F
TELLURIDE      CLOUDY    41  15  34 W8        29.96F
WOLF CREEK PAS PTCLDY    23  14  68 SW30G39   29.98S WCI   5
$$

COZ009-010-012-014-032>034-037-058>063-230000-
...CENTRAL COLORADO...

CITY           SKY/WX    TMP DP  RH WIND       PRES   REMARKS
ASPEN          LGT RAIN  39  23  52 N10G26    29.86R
BUENA VISTA    MOCLDY    44  12  27 W17G30    29.79S
COPPER MTN     CLOUDY    30  14  51 W22       29.92R WCI  17
BERTHOUD PASS  CLOUDY    19  14  79 NW26      29.86F WCI   1
COTTONWOOD PAS MOCLDY    39   9  28 W23G35    29.82R
GUNNISON       MOCLDY    32  16  51 N8        29.94R WCI  25
KREMMLING      FLURRIES  37  27  65 W22       29.85R
LEADVILLE      CLOUDY    29  18  63 W12G21    29.88R WCI  19
SALIDA         MOCLDY    47  11  23 W7G18     29.86S
SUNLIGHT       LGT SNOW  28  27  93 CALM      29.91F
WILKERSON PASS CLOUDY    34  10  37 SW20G29   29.80F WCI  22
$$

COZ069>075-230000-
...SAN LUIS VALLEY/SANGRE DE CRISTO MOUNTAINS...

CITY           SKY/WX    TMP DP  RH WIND       PRES   REMARKS
ALAMOSA        PTCLDY    48  12  23 S15       29.84F
LA VETA PASS   PTCLDY    34  12  40 S24G40    29.79F WCI  21
SAGUACHE       PTCLDY    43  18  36 S3        29.86F
$$

COZ035-036-038>040-230000-
...NORTHERN COLORADO FRONT RANGE...

CITY           SKY/WX    TMP DP  RH WIND       PRES   REMARKS
DENVER INTL AP CLOUDY    51  23  33 E8        29.58R
DMNS CITY PARK   N/A     58  15  18 NW7G13    29.56F
AURORA         MOCLDY    50  24  36 E8        29.59R
FRONT RANGE AP MOCLDY    52  27  37 N6        29.59S
ERIE MUNI ARPT CLOUDY    46  31  56 CALM      29.58S
BOULDER MUN AP CLOUDY    50  28  43 S6        29.59R
CENTENNIAL     CLOUDY    56  17  21 N10       29.59R
BROOMFIELD     MOCLDY    59  18  20 W23G45    29.59R
FORT COLLINS   CLOUDY    50  25  37 CALM      29.59R
LONGMONT       CLOUDY    49  27  41 CALM      29.59R
$$

COZ041-046-047-076>085-087-088-230000-
...PIKES PEAK/PALMER DIVIDE AND SOUTHERN FOOTHILLS...

CITY           SKY/WX    TMP DP  RH WIND       PRES   REMARKS
COLO. SPRINGS  CLOUDY    56   9  15 SW8       29.62F
A. F. ACADEMY  CLOUDY    56   9  14 VRB6      29.62F
ELLICOTT       NOT AVBL
FALCON         NOT AVBL
FORT CARSON    CLOUDY    55  13  18 W8        29.60S
LIMON          CLOUDY    54  11  18 CALM      29.58F
MONUMENT HILL  CLOUDY    50  10  20 SW7       29.63S
TRINIDAD       CLEAR     61  24  24 CALM      29.65F
$$

COZ042>045-048>051-090-091-230000-
...NORTHEAST COLORADO...

CITY           SKY/WX    TMP DP  RH WIND       PRES   REMARKS
GREELEY ARPT   CLOUDY    43  25  49 NW8       29.58S
AKRON          MOCLDY    59  10  14 SE3       29.55F
BURLINGTON     PTCLDY    58  16  19 SW13      29.57S
WRAY           MOCLDY    61   7  12 NW6       29.53F
STERLING       MOCLDY    55  23  28 NW5       29.53F
HOLYOKE        MOCLDY    54  14  20 W7        29.53F
FORT MORGAN    MOCLDY    50  17  26 N10       29.57R
$$

COZ086-089-092>099-230000-
...SOUTHEAST COLORADO...

CITY           SKY/WX    TMP DP  RH WIND       PRES   REMARKS
PUEBLO         MOCLDY    62  13  14 NW22G32   29.57F
LA JUNTA       PTCLDY    59  30  33 W6        29.57F
LAMAR          CLEAR     61  21  21 S6        29.55F
SPRINGFIELD      N/A     62  14  15 SW9       29.59F
$$



USA.gov is the U.S. government's official web portal to all federal, state and local government web resources and services.